Tracking 31027 objects as of 19-Jul-2025
HD Live streaming from Space Station
objects crossing your sky now

JCSAT 18

Track JCSAT 18 now!


NORAD ID: 44868
Int'l Code: 2019-091A
Perigee: 35,792.2 km
Apogee: 35,796.3 km
Inclination: 0.0 °
Period: 1,436.1 minutes
Semi major axis: 42165 km
RCS: Unknown
Launch date: December 17, 2019
Source: Japan (JPN)
Launch site: AIR FORCE EASTERN TEST RANGE (AFETR)
Your satellite tracking list
STARLINK-3674
Track 1 satellite(s)




NASA's NSSDC Master Catalog

Two Line Element Set (TLE):
1 44868U 19091A   25199.54280922 -.00000195  00000-0  00000-0 0  9994
2 44868   0.0423 237.9284 0000488   3.1532  40.9319  1.00269902 20669
Source of the keplerian elements: AFSPC